Weather reports worldwide

Advertisment
Auch, France (7622): temperature & dewpoint: 13.08.2019 00:00:00 - 19.08.2019 00:00:00 (CEST)Auch, France (7622): temperature 5cm: 13.08.2019 00:00:00 - 19.08.2019 00:00:00 (CEST)Auch, France (7622): temperature -20cm & temperature -100cm: 13.08.2019 00:00:00 - 19.08.2019 00:00:00 (CEST)Auch, France (7622): wind speed & gusts: 13.08.2019 00:00:00 - 19.08.2019 00:00:00 (CEST)Auch, France (7622): wind direction: 13.08.2019 00:00:00 - 19.08.2019 00:00:00 (CEST)Auch, France (7622): reduced air pressure: 13.08.2019 00:00:00 - 19.08.2019 00:00:00 (CEST)Auch, France (7622): visibility: 13.08.2019 00:00:00 - 19.08.2019 00:00:00 (CEST)Auch, France (7622): sunshine duration: 13.08.2019 00:00:00 - 19.08.2019 00:00:00 (CEST)Auch, France (7622): precipitation: 13.08.2019 00:00:00 - 19.08.2019 00:00:00 (CEST)
Date & Time tt [°C] td [°C] tt 5cm [°C] tt -20cm [°C] tt -100cm [°C] ff [km/h] ff [kn] fx [km/h] fx [kn] dd ppp [hPa] vv [km] sd [min] rr [mm]
19.08.2019 00:00:00 20,1 16,9 18,3 24,0 21,2 12 7 22 12 NW 1017,7 20 0 0,0
18.08.2019 23:00:00 20,9 16,9 18,7 24,0 21,2 11 6 24 13 WNW 1017,3 13 0 0,2
18.08.2019 22:00:00 22,8 17,0 22,3 24,0 21,2 11 6 29 16 WNW 1015,8 20 0 0,0
18.08.2019 21:00:00 23,4 18,9 23,0 24,0 21,2 14 8 34 18 WNW 1014,2 20 23 0,0
18.08.2019 20:00:00 24,6 19,2 24,5 24,0 21,2 16 9 31 17 WNW 1013,4 20 0 0,0
18.08.2019 19:00:00 25,5 19,6 25,8 23,9 21,2 15 8 31 17 W 1013,0 20 9 0,0
18.08.2019 18:00:00 26,7 20,1 27,1 23,7 21,1 13 7 27 14 WNW 1012,9 20 0 0,0
18.08.2019 17:00:00 27,5 19,3 27,5 23,6 21,2 6 3 15 8 WSW 1012,4 20 1 0,0
18.08.2019 16:00:00 26,9 20,0 28,0 23,4 21,1 8 4 23 12 W 1012,6 20 9 0,0
18.08.2019 15:00:00 27,2 20,3 29,0 23,2 21,1 11 6 22 12 WSW 1012,7 20 4 0,0
18.08.2019 14:00:00 27,9 19,7 29,7 23,0 21,2 11 6 24 13 WSW 1012,3 20 37 0,0
18.08.2019 13:00:00 28,3 19,5 34,0 22,9 21,2 4 2 16 9 SW 1012,1 13 60 0,0
18.08.2019 12:00:00 26,5 18,9 30,8 22,8 21,1 3 2 18 10 W 1011,7 20 60 0,0
18.08.2019 11:00:00 25,3 19,2 25,4 22,8 21,1 4 2 14 8 W 1011,6 20 60 0,0
18.08.2019 10:00:00 22,7 18,9 22,1 22,9 21,2 9 5 14 8 SSW 1010,6 18 60 0,0
18.08.2019 09:00:00 19,9 18,2 18,1 23,0 21,1 5 3 11 6 S 1010,1 20 16 0,0
18.08.2019 08:00:00 17,4 16,3 16,0 23,1 21,1 7 4 13 7 SW 1009,7 20 9 0,0
18.08.2019 07:00:00 16,9 15,9 13,9 23,3 21,1 4 2 5 3 SSW 1009,5 18 0 0,0
18.08.2019 06:00:00 16,7 15,7 13,8 23,4 21,2 0 0 3 2 N 1009,3 16 0 0,0
18.08.2019 05:00:00 16,8 15,7 14,2 23,5 21,2 0 0 3 2 N 1009,5 20 0 0,0
18.08.2019 04:00:00 17,0 15,5 14,8 23,6 21,1 0 0 3 1 N 1010,1 20 0 0,0
18.08.2019 03:00:00 17,3 15,6 15,2 23,8 21,2 0 0 3 2 N 1010,9 20 0 0,0
18.08.2019 02:00:00 17,5 15,3 14,9 24,0 21,2 0 0 4 2 N 1011,4 20 0 0,0
18.08.2019 01:00:00 18,1 15,9 15,2 24,0 21,2 0 0 3 2 N 1011,6 20 0 0,0
18.08.2019 00:00:00 18,9 15,9 15,9 24,1 21,2 3 1 4 2 SSW 1012,0 20 0 0,0
17.08.2019 23:00:00 20,1 16,1 16,5 24,1 21,2 0 0 0 0 N 1012,3 20 0 0,0
17.08.2019 22:00:00 22,1 17,2 17,9 24,1 21,2 0 0 3 1 N 1012,5 20 0 0,0
17.08.2019 21:00:00 26,3 18,7 21,0 24,0 21,2 2 1 6 4 WNW 1012,0 20 36 0,0
17.08.2019 20:00:00 30,4 14,9 32,9 23,9 21,2 4 2 6 3 NNW 1012,2 20 60 0,0
17.08.2019 19:00:00 31,2 13,9 34,7 23,6 21,2 3 2 9 5 WNW 1012,5 20 60 0,0
17.08.2019 18:00:00 31,9 15,4 37,0 23,3 21,1 2 1 14 8 NW 1012,9 20 60 0,0
17.08.2019 17:00:00 30,6 14,2 37,2 23,0 21,2 7 4 15 8 N 1013,4 20 60 0,0
17.08.2019 16:00:00 29,6 15,0 37,4 22,7 21,2 6 4 15 8 NNW 1013,8 20 60 0,0
17.08.2019 15:00:00 29,2 15,0 35,4 22,5 21,2 4 2 10 5 N 1014,4 20 60 0,0
17.08.2019 14:00:00 28,1 16,1 34,2 22,3 21,2 4 2 11 6 SSW 1015,1 20 60 0,0
17.08.2019 13:00:00 26,4 15,1 32,7 22,1 21,2 2 1 13 7 W 1015,8 20 60 0,0
17.08.2019 12:00:00 24,1 15,6 30,4 22,1 21,2 7 4 15 8 NNW 1016,4 20 60 0,0
17.08.2019 11:00:00 22,7 16,9 23,3 22,1 21,2 6 3 12 6 NNE 1016,4 20 60 0,0
17.08.2019 10:00:00 21,0 16,6 20,4 22,2 21,3 2 1 5 3 SW 1016,5 20 36 0,0
17.08.2019 09:00:00 18,4 15,6 18,1 22,3 21,2 2 1 5 3 S 1016,5 20 53 0,0
17.08.2019 08:00:00 15,9 14,8 13,8 22,4 21,2 4 2 10 5 S 1016,7 20 34 0,0
17.08.2019 07:00:00 14,7 13,7 12,2 22,6 21,2 9 5 12 7 S 1016,8 20 0 0,0
17.08.2019 06:00:00 14,7 13,7 12,0 22,7 21,2 3 1 8 4 SW 1017,1 20 0 0,0
17.08.2019 05:00:00 15,1 13,6 12,4 22,9 21,2 2 1 7 4 SSW 1017,6 20 0 0,0
17.08.2019 04:00:00 16,2 14,2 14,0 23,0 21,2 4 2 13 7 S 1017,2 20 0 0,0
17.08.2019 03:00:00 16,5 14,3 14,9 23,1 21,2 9 5 16 9 S 1017,2 20 0 0,0
17.08.2019 02:00:00 16,4 14,2 13,0 23,3 21,2 7 4 10 6 SSW 1016,9 20 0 0,0
17.08.2019 01:00:00 15,4 13,6 12,6 23,4 21,2 3 1 4 2 SSW 1016,8 20 0 0,0
17.08.2019 00:00:00 16,3 14,0 13,0 23,5 21,2 0 0 3 2 N 1016,5 20 0 0,0
16.08.2019 23:00:00 17,3 14,0 13,7 23,5 21,2 3 1 3 2 SSW 1016,3 20 0 0,0
16.08.2019 22:00:00 19,3 15,0 14,8 23,5 21,2 0 0 4 2 N 1016,1 20 0 0,0
16.08.2019 21:00:00 23,8 14,8 18,2 23,4 21,2 0 0 7 4 N 1015,2 20 32 0,0
16.08.2019 20:00:00 28,1 12,0 29,7 23,2 21,2 4 2 14 8 WNW 1014,9 20 57 0,0
16.08.2019 19:00:00 28,9 12,3 31,7 23,0 21,2 9 5 14 8 WSW 1015,2 13 58 0,0
16.08.2019 18:00:00 29,3 13,1 33,0 22,7 21,3 2 1 13 7 WNW 1015,3 19 58 0,0
16.08.2019 17:00:00 28,7 12,2 33,9 22,4 21,3 2 1 11 6 NNW 1015,7 20 56 0,0
16.08.2019 16:00:00 28,3 12,6 34,0 22,2 21,2 4 2 13 7 W 1016,3 20 60 0,0
16.08.2019 15:00:00 26,8 15,5 33,6 21,9 21,2 6 3 18 10 N 1017,0 20 60 0,0
16.08.2019 14:00:00 25,4 14,5 32,7 21,7 21,3 9 5 20 11 N 1017,6 20 60 0,0
16.08.2019 13:00:00 24,6 14,7 30,6 21,6 21,2 9 5 18 10 ENE 1018,1 20 60 0,0
16.08.2019 12:00:00 23,6 13,7 29,1 21,5 21,2 6 3 18 10 ENE 1018,6 20 60 0,0
16.08.2019 11:00:00 22,6 14,2 21,7 21,5 21,3 6 4 12 7 E 1019,3 20 60 0,0
16.08.2019 10:00:00 18,9 15,8 18,3 21,6 21,3 0 0 6 3 N 1019,9 20 60 0,0
16.08.2019 09:00:00 15,3 14,2 12,9 21,8 21,3 0 0 4 2 N 1020,6 17 60 0,0
16.08.2019 08:00:00 12,2 11,7 8,5 21,9 21,3 0 0 0 0 N 1020,7 19 17 0,0
16.08.2019 07:00:00 11,5 10,9 8,1 22,1 21,3 0 0 2 1 N 1020,7 12 0 0,0
16.08.2019 06:00:00 12,0 11,4 8,3 22,3 21,3 0 0 3 2 N 1020,8 6 0 0,2
16.08.2019 05:00:00 11,9 11,1 8,9 22,4 21,3 3 2 4 2 S 1021,0 16 0 0,0
16.08.2019 04:00:00 12,7 11,9 9,5 22,6 21,3 2 1 5 3 SSW 1021,5 13 0 0,0
16.08.2019 03:00:00 13,6 12,8 10,1 22,7 21,3 2 1 3 2 NNW 1021,8 17 0 0,0
16.08.2019 02:00:00 14,1 13,1 10,4 22,9 21,3 0 0 4 2 N 1022,2 20 0 0,0
16.08.2019 01:00:00 14,7 13,2 11,3 23,0 21,3 0 0 3 2 N 1022,7 20 0 0,0
16.08.2019 00:00:00 15,8 13,8 12,0 23,1 21,3 0 0 3 1 N 1023,0 20 0 0,0
15.08.2019 23:00:00 17,3 13,8 13,4 23,2 21,3 0 0 6 3 N 1022,9 20 0 0,0
15.08.2019 22:00:00 18,8 14,1 15,7 23,2 21,3 5 3 9 5 WSW 1022,5 20 0 0,0
15.08.2019 21:00:00 20,7 14,1 18,7 23,2 21,3 5 3 17 9 W 1022,0 20 39 0,0
15.08.2019 20:00:00 22,7 13,7 23,9 23,1 21,3 10 5 25 14 W 1021,8 20 60 0,0
15.08.2019 19:00:00 23,3 14,3 25,1 23,0 21,3 10 5 26 14 WNW 1021,6 20 47 0,0
15.08.2019 18:00:00 23,7 13,8 25,7 22,9 21,3 13 7 31 17 W 1021,7 20 32 0,0
15.08.2019 17:00:00 23,5 14,5 25,6 22,8 21,3 16 9 31 17 WNW 1021,7 20 27 0,0
15.08.2019 16:00:00 23,8 14,5 23,3 22,7 21,3 15 8 34 18 WNW 1021,8 20 53 0,0
15.08.2019 15:00:00 21,6 14,0 22,7 22,7 21,3 19 10 35 19 WNW 1022,2 20 7 0,0
15.08.2019 14:00:00 22,8 15,1 23,3 22,6 21,3 14 8 32 17 W 1021,9 20 14 0,0
15.08.2019 13:00:00 22,3 14,7 24,1 22,5 21,3 19 10 35 19 NW 1021,8 20 20 0,0
15.08.2019 12:00:00 22,6 14,7 25,4 22,6 21,3 16 9 37 20 NW 1021,8 20 44 0,0
15.08.2019 11:00:00 21,4 15,7 22,3 22,6 21,3 17 9 37 20 NW 1021,6 20 27 0,0
15.08.2019 10:00:00 21,7 17,5 20,8 22,6 21,3 11 6 31 17 WNW 1021,3 20 25 0,0
15.08.2019 09:00:00 20,1 16,9 19,6 22,7 21,3 8 5 23 13 W 1021,3 20 29 0,0
15.08.2019 08:00:00 19,3 17,4 18,5 22,8 21,3 6 3 16 8 WSW 1020,5 20 11 0,0
15.08.2019 07:00:00 19,2 17,2 18,6 22,9 21,4 8 4 15 8 WSW 1020,5 20 0 0,0
15.08.2019 06:00:00 19,1 17,1 18,5 22,9 21,4 8 5 19 10 SW 1020,2 20 0 0,0
15.08.2019 05:00:00 19,3 17,1 18,9 23,0 21,3 8 4 18 10 WSW 1020,0 20 0 0,0
15.08.2019 04:00:00 19,3 16,3 18,6 23,1 21,3 6 3 16 9 WSW 1019,9 20 0 0,0
15.08.2019 03:00:00 19,8 15,0 19,2 23,2 21,4 7 4 16 9 W 1020,0 20 0 0,0
15.08.2019 02:00:00 20,2 13,9 19,6 23,2 21,3 8 4 16 9 WSW 1020,3 20 0 0,0
15.08.2019 01:00:00 20,5 13,0 19,6 23,4 21,4 6 3 15 8 SW 1020,2 20 0 0,0
15.08.2019 00:00:00 21,2 12,6 20,4 23,4 21,4 5 3 11 6 W 1020,1 20 0 0,0
14.08.2019 23:00:00 21,6 11,9 20,4 23,4 21,4 6 3 16 9 WNW 1020,0 20 0 0,0
14.08.2019 22:00:00 22,2 11,9 19,6 23,4 21,4 6 3 11 6 W 1019,6 20 0 0,0
14.08.2019 21:00:00 23,3 11,7 21,3 23,4 21,4 5 3 20 11 WSW 1019,0 20 23 0,0
14.08.2019 20:00:00 25,7 12,2 26,9 23,3 21,4 8 5 26 14 W 1018,4 20 60 0,0
14.08.2019 19:00:00 26,3 10,8 26,5 23,0 21,4 12 6 27 15 W 1018,3 20 53 0,0
14.08.2019 18:00:00 26,8 11,7 30,9 22,8 21,4 11 6 22 12 W 1018,4 20 60 0,0
14.08.2019 17:00:00 26,9 12,2 32,3 22,5 21,4 10 5 25 13 WSW 1018,4 20 60 0,0
14.08.2019 16:00:00 26,6 12,3 32,6 22,3 21,4 9 5 19 10 WNW 1018,7 20 60 0,0
14.08.2019 15:00:00 25,9 12,4 31,9 22,0 21,4 5 3 12 6 ESE 1019,2 20 56 0,0
14.08.2019 14:00:00 25,3 12,5 30,9 21,8 21,4 3 2 11 6 NE 1019,8 19 60 0,0
14.08.2019 13:00:00 24,3 12,3 30,7 21,7 21,4 4 2 20 11 E 1020,4 19 60 0,0
14.08.2019 12:00:00 23,0 11,4 28,2 21,6 21,4 6 4 16 8 E 1020,8 20 60 0,0
14.08.2019 11:00:00 21,6 12,2 20,6 21,7 21,4 4 2 10 5 SE 1021,0 20 60 0,0
14.08.2019 10:00:00 18,3 13,2 17,5 21,8 21,4 6 4 10 5 S 1021,2 20 60 0,0
14.08.2019 09:00:00 14,7 12,6 12,4 22,0 21,5 5 3 9 5 S 1021,4 20 60 0,0
14.08.2019 08:00:00 12,1 11,5 9,0 22,1 21,4 4 2 7 4 S 1021,4 19 17 0,0
14.08.2019 07:00:00 11,4 10,6 8,6 22,3 21,4 3 2 9 5 S 1021,0 20 0 0,0
14.08.2019 06:00:00 11,8 10,9 9,3 22,4 21,4 3 2 8 4 SSW 1021,1 20 0 0,0
14.08.2019 05:00:00 12,4 11,5 10,0 22,6 21,5 3 2 9 5 SSW 1021,4 20 0 0,0
14.08.2019 04:00:00 12,5 11,4 10,9 22,7 21,4 6 3 9 5 S 1021,8 20 0 0,0
14.08.2019 03:00:00 12,2 11,4 9,0 22,9 21,5 4 2 6 4 SSW 1022,0 20 0 0,0
14.08.2019 02:00:00 12,2 11,3 9,1 23,0 21,5 0 0 5 3 N 1022,5 20 0 0,0
14.08.2019 01:00:00 12,7 11,6 9,3 23,2 21,5 0 0 3 2 N 1022,9 20 0 0,0
14.08.2019 00:00:00 13,4 11,8 10,2 23,3 21,5 2 1 4 2 SSW 1022,9 20 0 0,0
13.08.2019 23:00:00 14,7 12,0 11,4 23,4 21,5 3 1 4 2 S 1022,9 20 0 0,0
13.08.2019 22:00:00 16,1 12,6 12,0 23,4 21,5 0 0 4 2 N 1022,5 20 0 0,0
13.08.2019 21:00:00 18,9 13,1 15,6 23,4 21,5 4 2 15 8 NW 1021,9 20 42 0,0
13.08.2019 20:00:00 20,9 11,0 21,6 23,3 21,5 11 6 23 12 N 1021,6 20 47 0,0
13.08.2019 19:00:00 21,4 10,5 22,9 23,2 21,5 14 8 27 15 NNW 1021,2 20 36 0,0
13.08.2019 18:00:00 23,3 11,0 23,5 23,0 21,5 10 5 21 12 W 1021,2 20 41 0,0
13.08.2019 17:00:00 22,3 10,4 25,0 22,8 21,5 13 7 26 14 NW 1021,4 20 47 0,0
13.08.2019 16:00:00 22,8 10,6 24,9 22,6 21,5 10 5 22 12 WNW 1021,8 20 46 0,0
13.08.2019 15:00:00 22,0 11,1 28,9 22,4 21,5 15 8 22 12 NW 1022,1 20 58 0,0
13.08.2019 14:00:00 21,5 11,2 25,2 22,3 21,5 9 5 21 12 NW 1022,7 20 38 0,0
13.08.2019 13:00:00 21,0 11,6 22,2 22,2 21,5 6 3 13 7 WNW 1023,0 20 47 0,0
13.08.2019 12:00:00 19,6 11,1 23,3 22,2 21,5 8 4 14 8 W 1023,6 20 46 0,0
13.08.2019 11:00:00 19,0 13,0 20,5 22,2 21,5 5 3 12 6 NW 1023,6 19 54 0,0
13.08.2019 10:00:00 18,2 12,9 19,3 22,3 21,5 4 2 7 4 NE 1023,8 20 60 0,0
13.08.2019 09:00:00 15,6 14,0 14,5 22,4 21,6 0 0 4 2 N 1024,0 20 21 0,0
13.08.2019 08:00:00 13,7 12,9 12,6 22,5 21,5 0 0 4 2 N 1023,8 20 0 0,0
13.08.2019 07:00:00 13,3 12,7 12,1 22,7 21,5 2 1 6 3 SW 1023,6 20 0 0,0
13.08.2019 06:00:00 13,2 12,6 11,5 22,8 21,5 2 1 10 5 SW 1023,2 20 0 0,0
13.08.2019 05:00:00 12,8 12,0 11,3 23,0 21,6 8 5 11 6 S 1023,3 20 0 0,0
13.08.2019 04:00:00 13,7 12,8 11,8 23,1 21,5 2 1 6 3 S 1023,7 20 0 0,0
13.08.2019 03:00:00 14,5 12,7 12,5 23,2 21,5 0 0 8 4 N 1024,1 20 0 0,0
13.08.2019 02:00:00 14,9 13,4 12,3 23,3 21,6 8 4 9 5 SSW 1024,5 20 0 0,0
13.08.2019 01:00:00 15,0 13,2 12,6 23,4 21,6 5 3 10 6 S 1024,4 20 0 0,0
13.08.2019 00:00:00 16,0 13,3 13,7 23,5 21,5 4 2 10 6 SW 1024,2 20 0 0,0

tt = temperature
td = dewpoint
tt 5cm = temperature 5cm
tt -20cm = temperature -20cm
tt -100cm = temperature -100cm
ff = wind speed
fx = gusts
dd = wind direction
ppp = reduced air pressure
vv = visibility
sd = sunshine duration
rr = precipitation

Next stations